Tracking 35331 objects as of 15-Sep-2026
HD Live streaming from Space Station
objects crossing your sky now

NOAA 17 DEB

Track NOAA 17 DEB now!
10-day predictions


NORAD ID: 48167
Int'l Code: 2002-032H
Launch date: June 24, 2002
Source: United States (US)
Launch site: AIR FORCE WESTERN TEST RANGE (AFWTR)

Note: This is SATELLITE DEBRIS
Your satellite tracking list
Your tracking list is empty




NASA's NSSDC Master Catalog

Two Line Element Set (TLE):
1 48167U 02032H   26257.51566638  .00008291  00000-0  13285-2 0  9996
2 48167  98.7248 272.1512 0022546 167.7049 192.4711 14.71838979289729
Source of the keplerian elements: AFSPC